| time (UTC) | temp F | wind direction | speed MPH | gust MPH | rain 1hr in | rain 24hr in | rain mn in | humidity % | barometer mb |
| 20260508184512 | 72 | 280 | 9.0 | 20.0 | 0.00 | 0.00 | 0.00 | 21 | 1004.2 |
| 20260508183051 | 71 | 269 | 7.0 | 15.0 | 0.00 | 0.00 | 0.00 | 21 | 1004.4 |
| 20260508181615 | 70 | 259 | 5.0 | 20.0 | 0.00 | 0.00 | 0.00 | 22 | 1004.6 |
| 20260508180031 | 70 | 278 | 13.0 | 25.0 | 0.00 | 0.00 | 0.00 | 21 | 1004.7 |
| 20260508174530 | 71 | 300 | 5.0 | 13.0 | 0.00 | 0.00 | 0.00 | 21 | 1005.0 |
| 20260508173002 | 70 | 264 | 7.0 | 16.0 | 0.00 | 0.00 | 0.00 | 21 | 1005.6 |
| 20260508171557 | 70 | 307 | 10.0 | 17.0 | 0.00 | 0.00 | 0.00 | 22 | 1005.8 |
| 20260508170038 | 69 | 249 | 5.0 | 20.0 | 0.00 | 0.00 | 0.00 | 23 | 1006.1 |
| 20260508164534 | 68 | 244 | 6.0 | 12.0 | 0.00 | 0.00 | 0.00 | 24 | 1006.3 |
| 20260508163019 | 68 | 308 | 3.0 | 15.0 | 0.00 | 0.00 | 0.00 | 24 | 1006.6 |
| 20260508161521 | 66 | 260 | 10.0 | 16.0 | 0.00 | 0.00 | 0.00 | 25 | 1006.6 |
| 20260508160055 | 66 | 270 | 10.0 | 22.0 | 0.00 | 0.00 | 0.00 | 24 | 1006.8 |
| 20260508154557 | 66 | 259 | 11.0 | 18.0 | 0.00 | 0.00 | 0.00 | 25 | 1006.8 |
| 20260508153042 | 65 | 261 | 9.0 | 17.0 | 0.00 | 0.00 | 0.00 | 27 | 1007.2 |
| 20260508151531 | 64 | 221 | 11.0 | 18.0 | 0.00 | 0.00 | 0.00 | 28 | 1007.3 |
| 20260508150012 | 63 | 250 | 12.0 | 18.0 | 0.00 | 0.00 | 0.00 | 29 | 1007.6 |
| 20260508144507 | 62 | 220 | 10.0 | 19.0 | 0.00 | 0.00 | 0.00 | 31 | 1007.7 |
| 20260508143050 | 61 | 299 | 12.0 | 20.0 | 0.00 | 0.00 | 0.00 | 33 | 1007.9 |
| 20260508141548 | 60 | 250 | 9.0 | 18.0 | 0.00 | 0.00 | 0.00 | 33 | 1008.0 |
| 20260508140034 | 59 | 193 | 12.0 | 20.0 | 0.00 | 0.00 | 0.00 | 36 | 1008.0 |
| 20260508134529 | 58 | 231 | 10.0 | 17.0 | 0.00 | 0.00 | 0.00 | 37 | 1008.2 |
| 20260508133013 | 55 | 221 | 8.0 | 15.0 | 0.00 | 0.00 | 0.00 | 40 | 1008.3 |
| 20260508131511 | 54 | 186 | 9.0 | 14.0 | 0.00 | 0.00 | 0.00 | 40 | 1008.4 |
| 20260508130054 | 52 | 179 | 10.0 | 14.0 | 0.00 | 0.00 | 0.00 | 41 | 1008.5 |
| 20260508124553 | 50 | 192 | 7.0 | 11.0 | 0.00 | 0.00 | 0.00 | 47 | 1008.4 |
| 20260508123056 | 48 | 193 | 9.0 | 12.0 | 0.00 | 0.00 | 0.00 | 48 | 1008.4 |
| 20260508121554 | 0 | 0.0 | 0.0 | 0.00 | 0.00 | 0.00 | 1008.4 | ||
| 20260508120049 | 0 | 0.0 | 0.0 | 0.00 | 0.00 | 0.00 | 1008.4 | ||
| 20260508114541 | 0 | 0.0 | 0.0 | 0.00 | 0.00 | 0.00 | 1008.3 | ||
| 20260508113039 | 0 | 0.0 | 0.0 | 0.00 | 0.00 | 0.00 | 1008.2 | ||
| 20260508111533 | 0 | 0.0 | 0.0 | 0.00 | 0.00 | 0.00 | 1008.3 | ||
| 20260508110013 | 41 | 195 | 9.0 | 11.0 | 0.00 | 0.00 | 0.00 | 55 | 1008.4 |
| 20260508104511 | 41 | 203 | 9.0 | 11.0 | 0.00 | 0.00 | 0.00 | 54 | 1008.4 |
| 20260508103051 | 41 | 202 | 6.0 | 9.0 | 0.00 | 0.00 | 0.00 | 55 | 1008.4 |
| 20260508101549 | 41 | 203 | 6.0 | 8.0 | 0.00 | 0.00 | 0.00 | 54 | 1008.6 |
| 20260508100029 | 42 | 210 | 6.0 | 10.0 | 0.00 | 0.00 | 0.00 | 52 | 1008.6 |
| 20260508094528 | 44 | 183 | 6.0 | 10.0 | 0.00 | 0.00 | 0.00 | 49 | 1008.7 |
| 20260508093011 | 43 | 175 | 8.0 | 12.0 | 0.00 | 0.00 | 0.00 | 50 | 1008.7 |
| 20260508091507 | 43 | 140 | 6.0 | 9.0 | 0.00 | 0.00 | 0.00 | 51 | 1008.7 |
| 20260508090049 | 43 | 169 | 6.0 | 9.0 | 0.00 | 0.00 | 0.00 | 50 | 1008.7 |
| 20260508084548 | 44 | 173 | 6.0 | 9.0 | 0.00 | 0.00 | 0.00 | 50 | 1008.8 |
| 20260508083029 | 44 | 177 | 7.0 | 8.0 | 0.00 | 0.00 | 0.00 | 50 | 1008.8 |
| 20260508081533 | 44 | 169 | 6.0 | 8.0 | 0.00 | 0.00 | 0.00 | 48 | 1008.9 |
| 20260508080012 | 43 | 182 | 5.0 | 0.0 | 0.00 | 0.00 | 0.00 | 51 | 1009.0 |
| 20260508074507 | 41 | 181 | 4.0 | 6.0 | 0.00 | 0.00 | 0.00 | 54 | 1009.2 |
| 20260508073105 | 41 | 186 | 2.0 | 4.0 | 0.00 | 0.00 | 0.00 | 54 | 1009.3 |
| 20260508071544 | 43 | 191 | 2.0 | 4.0 | 0.00 | 0.00 | 0.00 | 50 | 1009.3 |
| 20260508070046 | 43 | 214 | 1.0 | 3.0 | 0.00 | 0.00 | 0.00 | 49 | 1009.4 |
| 20260508064524 | 43 | 215 | 1.0 | 2.0 | 0.00 | 0.00 | 0.00 | 52 | 1009.4 |
| 20260508063020 | 44 | 155 | 1.0 | 3.0 | 0.00 | 0.00 | 0.00 | 48 | 1009.5 |
| 20260508061503 | 46 | 170 | 1.0 | 2.0 | 0.00 | 0.00 | 0.00 | 45 | 1009.6 |
| 20260508060107 | 47 | 153 | 1.0 | 2.0 | 0.00 | 0.00 | 0.00 | 43 | 1009.6 |
| 20260508054600 | 48 | 171 | 1.0 | 2.0 | 0.00 | 0.00 | 0.00 | 42 | 1009.7 |
| 20260508053104 | 50 | 134 | 1.0 | 3.0 | 0.00 | 0.00 | 0.00 | 37 | 1009.8 |
| 20260508051600 | 50 | 129 | 2.0 | 3.0 | 0.00 | 0.00 | 0.00 | 36 | 1009.9 |
| 20260508050057 | 50 | 131 | 2.0 | 3.0 | 0.00 | 0.00 | 0.00 | 35 | 1009.9 |
| 20260508044606 | 51 | 117 | 0.0 | 0.0 | 0.00 | 0.00 | 0.00 | 35 | 1010.0 |
| 20260508041537 | 50 | 127 | 0.0 | 0.0 | 0.00 | 0.00 | 0.00 | 36 | 1010.0 |
| 20260508040037 | 50 | 127 | 0.0 | 0.0 | 0.00 | 0.00 | 0.00 | 35 | 1010.1 |
| 20260508034519 | 50 | 128 | 0.0 | 0.0 | 0.00 | 0.00 | 0.00 | 36 | 1010.0 |
| 20260508033021 | 49 | 133 | 0.0 | 1.0 | 0.00 | 0.00 | 0.00 | 38 | 1010.1 |
| 20260508031505 | 51 | 131 | 0.0 | 2.0 | 0.00 | 0.00 | 0.00 | 35 | 1009.9 |
| 20260508030002 | 52 | 326 | 0.0 | 1.0 | 0.00 | 0.00 | 0.00 | 33 | 1009.9 |
| 20260508024601 | 52 | 326 | 0.0 | 0.0 | 0.00 | 0.00 | 0.00 | 33 | 1009.8 |
| 20260508023057 | 53 | 326 | 0.0 | 0.0 | 0.00 | 0.00 | 0.00 | 31 | 1009.7 |
| 20260508021558 | 54 | 326 | 0.0 | 0.0 | 0.00 | 0.00 | 0.00 | 30 | 1009.6 |
| 20260508020056 | 55 | 326 | 0.0 | 0.0 | 0.00 | 0.00 | 0.00 | 30 | 1009.4 |
| 20260508014556 | 56 | 345 | 1.0 | 3.0 | 0.00 | 0.00 | 0.00 | 29 | 1009.2 |
| 20260508013056 | 57 | 322 | 2.0 | 3.0 | 0.00 | 0.00 | 0.00 | 29 | 1009.1 |
| 20260508011543 | 58 | 329 | 2.0 | 4.0 | 0.00 | 0.00 | 0.00 | 28 | 1009.0 |
| 20260508010039 | 59 | 325 | 0.0 | 4.0 | 0.00 | 0.00 | 0.00 | 27 | 1008.8 |
| 20260508004525 | 61 | 321 | 1.0 | 5.0 | 0.00 | 0.00 | 0.00 | 27 | 1008.8 |
| 20260508003019 | 62 | 290 | 1.0 | 8.0 | 0.00 | 0.00 | 0.00 | 26 | 1008.8 |
| 20260508001501 | 63 | 329 | 3.0 | 10.0 | 0.00 | 0.00 | 0.00 | 24 | 1008.9 |
| 20260508000100 | 63 | 315 | 4.0 | 10.0 | 0.00 | 0.00 | 0.00 | 24 | 1008.9 |
| 20260508000006 | 63 | 336 | 3.0 | 9.0 | 0.00 | 0.00 | 0.00 | 24 | 1008.9 |
| 20260507234549 | 64 | 269 | 3.0 | 9.0 | 0.00 | 0.00 | 0.00 | 24 | 1008.9 |
| 20260507233042 | 64 | 294 | 3.0 | 9.0 | 0.00 | 0.00 | 0.00 | 24 | 1009.1 |
| 20260507231533 | 64 | 300 | 3.0 | 10.0 | 0.00 | 0.00 | 0.00 | 24 | 1009.1 |
| 20260507230020 | 64 | 292 | 4.0 | 7.0 | 0.00 | 0.00 | 0.00 | 23 | 1009.1 |
| 20260507224603 | 62 | 275 | 4.0 | 11.0 | 0.00 | 0.00 | 0.00 | 24 | 1009.3 |
| 20260507223110 | 63 | 282 | 4.0 | 12.0 | 0.00 | 0.00 | 0.00 | 24 | 1009.4 |
| 20260507221541 | 63 | 291 | 4.0 | 11.0 | 0.00 | 0.00 | 0.00 | 24 | 1009.5 |
| 20260507220038 | 63 | 320 | 3.0 | 10.0 | 0.00 | 0.00 | 0.00 | 24 | 1009.6 |
| 20260507214520 | 63 | 330 | 5.0 | 15.0 | 0.00 | 0.00 | 0.00 | 24 | 1009.7 |
| 20260507213024 | 62 | 318 | 5.0 | 11.0 | 0.00 | 0.00 | 0.00 | 25 | 1009.7 |
| 20260507211559 | 62 | 257 | 4.0 | 11.0 | 0.00 | 0.00 | 0.00 | 25 | 1009.8 |
| 20260507210057 | 62 | 322 | 2.0 | 13.0 | 0.00 | 0.00 | 0.00 | 25 | 1009.9 |
| 20260507204536 | 60 | 291 | 4.0 | 14.0 | 0.00 | 0.00 | 0.00 | 26 | 1010.1 |
| 20260507203040 | 61 | 264 | 5.0 | 14.0 | 0.00 | 0.00 | 0.00 | 26 | 1010.2 |
| 20260507201516 | 60 | 326 | 2.0 | 8.0 | 0.00 | 0.00 | 0.00 | 28 | 1010.4 |
| 20260507200013 | 60 | 314 | 4.0 | 14.0 | 0.00 | 0.00 | 0.00 | 26 | 1010.5 |
| 20260507194552 | 59 | 328 | 5.0 | 11.0 | 0.00 | 0.00 | 0.00 | 28 | 1010.7 |
| 20260507193058 | 59 | 287 | 11.0 | 16.0 | 0.00 | 0.00 | 0.00 | 27 | 1010.7 |
| 20260507191533 | 59 | 326 | 6.0 | 13.0 | 0.00 | 0.00 | 0.00 | 28 | 1010.8 |
| 20260507190033 | 59 | 266 | 3.0 | 8.0 | 0.00 | 0.00 | 0.00 | 31 | 1010.8 |